[[{"header":{"parameterUnit":"m.s-1","parameterCategory":1,"la1":30.2991,"la2":30.254,"lo1":-89.0895,"lo2":-89.0444,"dx":0.0017,"dy":0.0017,"nx":28,"ny":28,"refTime":"2022-12-29T09:00:00:Z","depth":0,"parameterNumber":2,"parameterNumberName":"U-component_of_WINDS"},"data":[0,0,0,0,0,0,0,0,0,0,0,0,0,0,0,0,0,0,0,0,0,0,0,0,0,0,0,0,0,0,0,0,0,0,0,0,0,0,0,0,0,0,0,0,0,0,0,0,0,0,0,0,0,0,0,0,0,0,-4.4204,-4.4205,0,-4.4269,-4.427,-4.4271,-4.4223,-4.4221,-4.4219,-4.4217,-4.4283,-4.4286,-4.429,0,0,0,0,0,0,0,0,0,0,0,0,0,-4.4037,-4.404,-4.4204,-4.4205,-4.4206,-4.4269,-4.427,-4.4271,-4.4224,-4.4221,-4.4218,-4.4216,-4.4281,-4.4286,-4.429,0,0,0,0,0,0,0,0,0,0,0,0,0,-4.4107,-4.4042,-4.4204,-4.419,-4.4189,-4.4269,-4.427,-4.4271,-4.4224,-4.4221,-4.4218,-4.4215,-4.428,-4.4285,-4.4291,-4.4388,0,0,-4.4308,-4.431,0,0,0,0,0,0,0,0,-4.4103,-4.4113,-4.4191,-4.4191,-4.419,-4.4235,-4.4235,-4.431,-4.4225,-4.4211,-4.4217,-4.4213,-4.4269,-4.4275,-4.4295,-4.4391,-4.4394,-4.4308,-4.4312,-4.4314,-4.4316,0,0,0,0,0,0,0,-4.4098,-4.411,-4.423,-4.4192,-4.4192,-4.418,-4.4186,-4.4249,-4.4257,-4.4212,-4.4208,-4.4217,-4.4268,-4.4289,-4.4296,-4.4395,-4.4308,-4.4313,-4.4317,-4.4319,-4.4575,-4.4578,0,0,0,0,0,0,-4.4095,-4.4106,-4.4228,-4.4232,-4.4138,-4.4185,-4.4192,-4.4224,-4.4256,-4.4258,-4.422,-4.4214,-4.4281,-4.4289,-4.4298,-4.4414,-4.4314,-4.4319,-4.4322,-4.4572,-4.4576,-4.458,0,0,0,0,0,0,-4.4091,-4.4106,-4.4225,-4.4168,-4.4182,-4.4191,-4.4227,-4.4227,-4.4247,-4.4262,-4.4263,-4.424,-4.4279,-4.429,-4.4366,-4.4416,-4.4322,-4.4327,-4.4568,-4.4573,-4.4578,-4.4647,0,0,0,0,0,0,-4.4087,-4.4105,-4.4142,-4.4169,-4.4186,-4.4293,-4.423,-4.423,-4.4257,-4.4251,-4.4281,-4.4283,-4.4278,-4.4358,-4.4372,-4.4422,-4.4331,-4.4563,-4.457,-4.4576,-4.464,-4.4654,-4.4666,0,0,0,0,0,-4.4081,-4.4159,-4.4144,-4.4159,-4.4232,-4.4295,-4.4305,-4.4298,-4.4262,-4.4299,-4.4308,-4.4282,-4.4408,-4.4366,-4.4381,-4.4433,-4.456,-4.4568,-4.4576,-4.4635,-4.4651,-4.4665,0,0,0,0,0,0,-4.4136,-4.4162,-4.4146,-4.4235,-4.4264,-4.4287,-4.4334,-4.4315,-4.4354,-4.4347,-4.4336,-4.4343,-4.4423,-4.4436,-4.4389,-4.453,-4.4478,-4.449,-4.4518,-4.4534,-4.4546,-4.4541,-4.4336,0,0,0,0,0,-4.4159,-4.4208,-4.4228,-4.4304,-4.432,-4.4325,-4.4352,-4.4344,-4.4373,-4.4385,-4.4399,-4.4428,-4.4474,-4.4505,-4.4548,-4.4642,-4.4648,-4.4686,-4.4698,-4.4708,-4.4718,-4.4769,-4.4786,-4.4605,-4.4605,-4.4605,0,0,-4.4206,-4.4226,-4.4258,-4.4316,-4.4337,-4.4389,-4.4335,-4.4391,-4.443,-4.4393,-4.4466,-4.4478,-4.451,-4.4595,-4.4634,-4.4608,-4.477,-4.4719,-4.4727,-4.4731,-4.4779,-4.4796,-4.4811,-4.4611,-4.461,-4.4609,0,0,-4.4317,-4.4338,-4.4404,-4.4427,-4.446,-4.4463,-4.4479,-4.4506,-4.4513,-4.4586,-4.456,-4.4605,-4.4685,-4.4709,-4.4731,-4.4854,-4.4831,-4.4868,-4.4934,-4.4984,-4.4998,-4.501,-4.5054,-4.507,-4.4878,-4.4878,-4.4878,0,-4.4371,-4.4448,-4.444,-4.4499,-4.4526,-4.4496,-4.4563,-4.4585,-4.4631,-4.465,-4.4621,-4.4721,-4.474,-4.4831,-4.4861,-4.488,-4.4898,-4.4864,-4.4996,-4.5009,-4.5021,-4.5062,-4.5079,-4.4882,-4.4882,-4.4881,-4.4881,0,-4.4513,-4.4567,-4.4616,-4.4662,-4.4694,-4.4756,-4.4758,-4.4791,-4.4781,-4.4788,-4.4863,-4.4885,-4.4932,-4.4954,-4.4944,-4.5044,-4.5027,-4.4998,-4.4946,-4.5042,-4.5081,-4.5097,-4.4888,-4.4887,-4.4885,-4.4884,0,0,-4.4659,-4.4701,-4.4719,-4.474,-4.4775,-4.4816,-4.4878,-4.4925,-4.4954,-4.4987,-4.5038,-4.5107,-4.5081,-4.5106,-4.5099,-4.5143,-4.5239,-4.5109,-4.5109,-4.5132,-4.5351,-4.5372,-4.5391,-4.5225,-4.5228,-4.523,-4.5348,0,-4.4773,-4.4881,-4.4876,-4.4977,-4.5026,-4.5,-4.5053,-4.5081,-4.5089,-4.5132,-4.514,-4.5189,-4.5151,-4.5166,-4.5208,-4.5219,-4.5283,-4.521,-4.5272,-4.5274,-4.5264,-4.5411,-4.5433,-4.5543,-4.5363,-4.5366,-4.5368,0,-4.4919,-4.4958,-4.5064,-4.5093,-4.5113,-4.5162,-4.5205,-4.5247,-4.5277,-4.528,-4.531,-4.5296,-4.5358,-4.5306,-4.5391,-4.5342,-4.5367,-4.5376,-4.538,-4.5385,-4.5326,-4.5419,-4.5578,-4.5595,-4.5391,-4.5389,-4.5388,0,-4.5015,-4.5094,-4.5168,-4.5186,-4.5222,-4.5256,-4.5273,-4.53,-4.5329,-4.5367,-4.5386,-4.5431,-4.5455,-4.549,-4.5488,-4.545,-4.5576,-4.5523,-4.5579,-4.5579,-4.5606,-4.5604,-4.5771,-4.5624,-4.5623,-4.5623,-4.5623,0,-4.5142,-4.5208,-4.5212,-4.5257,-4.533,-4.5324,-4.5397,-4.5409,-4.5435,-4.5482,-4.5462,-4.5506,-4.5502,-4.5547,-4.5546,-4.5618,-4.5629,-4.5633,-4.5631,-4.5634,-4.5634,-4.565,-4.5642,-4.5627,-4.5626,-4.5625,-4.5625,0,-4.5261,-4.5267,-4.5345,-4.5373,-4.5381,-4.5434,-4.5457,-4.55,-4.5507,-4.5567,-4.5581,-4.5591,-4.5643,-4.5646,-4.5706,-4.5705,-4.5792,-4.5783,-4.5782,-4.578,-4.5836,-4.5831,-4.6018,-4.6043,-4.588,-4.5882,-4.5883,0,-4.5341,-4.5392,-4.5425,-4.5456,-4.5474,-4.5524,-4.5554,-4.555,-4.5582,-4.5622,-4.566,-4.5711,-4.5751,-4.5835,-4.5848,-4.5894,-4.5885,-4.5948,-4.5892,-4.5893,-4.5886,-4.5883,-4.5888,-4.5958,-4.596,-4.5962,-4.5963,0,-4.5483,-4.5484,-4.5528,-4.5574,-4.561,-4.5645,-4.5678,-4.5705,-4.5705,-4.5742,-4.5796,-4.5827,-4.5889,-4.5939,-4.5984,-4.6,-4.5982,-4.5981,-4.5996,-4.5999,-4.5996,-4.5998,-4.5811,-4.5976,-4.5975,-4.5974,-4.5973,-4.5973,-4.5585,-4.5629,-4.5659,-4.5709,-4.5734,-4.5766,-4.5808,-4.582,-4.5865,-4.5916,-4.5911,-4.5971,-4.6001,-4.606,-4.608,-4.6126,-4.6105,-4.6127,-4.6133,-4.6138,-4.6144,-4.599,-4.6134,-4.6134,-4.6134,-4.6133,-4.6133,0,-4.5725,-4.5744,-4.579,-4.5838,-4.5877,-4.5858,-4.5894,-4.5928,-4.5981,-4.6011,-4.6051,-4.6113,-4.6162,-4.618,-4.6227,-4.6261,-4.6254,-4.6274,-4.6271,-4.6275,-4.6161,-4.6142,-4.6279,-4.6279,-4.6279,-4.6279,-4.6279,-4.6279,-4.5803,-4.5876,-4.588,-4.5965,-4.5983,-4.6042,-4.6064,-4.6094,-4.6118,-4.6188,-4.6229,-4.624,-4.6266,-4.6315,-4.6359,-4.6363,-4.6382,-4.6405,-4.6405,-4.6298,-4.6283,-4.6269,-4.6252,-4.6409,-4.6409,-4.6516,-4.6517,-4.6517]},{"header":{"parameterUnit":"m.s-1","parameterCategory":1,"la1":30.2991,"la2":30.254,"lo1":-89.0895,"lo2":-89.0444,"dx":0.0017,"dy":0.0017,"nx":28,"ny":28,"refTime":"2022-12-29T09:00:00:Z","depth":0,"parameterNumber":3,"parameterNumberName":"V-component_of_WINDS"},"data":[0,0,0,0,0,0,0,0,0,0,0,0,0,0,0,0,0,0,0,0,0,0,0,0,0,0,0,0,0,0,0,0,0,0,0,0,0,0,0,0,0,0,0,0,0,0,0,0,0,0,0,0,0,0,0,0,0,0,1.537,1.5371,0,1.5474,1.5475,1.5477,1.5538,1.5538,1.5538,1.5538,1.5641,1.5644,1.5646,0,0,0,0,0,0,0,0,0,0,0,0,0,1.5223,1.5225,1.537,1.5371,1.5373,1.5474,1.5475,1.5477,1.5538,1.5538,1.5538,1.5539,1.5641,1.5643,1.5646,0,0,0,0,0,0,0,0,0,0,0,0,0,1.5303,1.5226,1.537,1.5415,1.542,1.5474,1.5475,1.5477,1.5538,1.5538,1.5538,1.5539,1.564,1.5643,1.5647,1.5662,0,0,1.5658,1.566,0,0,0,0,0,0,0,0,1.5298,1.5308,1.5407,1.5412,1.5418,1.5493,1.5461,1.5539,1.5537,1.5493,1.5538,1.5539,1.5592,1.5599,1.5618,1.5667,1.5671,1.5659,1.5661,1.5663,1.5664,0,0,0,0,0,0,0,1.5293,1.5304,1.5411,1.5409,1.5415,1.543,1.5442,1.5476,1.5539,1.5497,1.5502,1.5513,1.5595,1.5614,1.5621,1.5673,1.5659,1.5662,1.5664,1.5666,1.5743,1.5743,0,0,0,0,0,0,1.528,1.5299,1.5408,1.5414,1.5358,1.5433,1.5446,1.5469,1.5538,1.555,1.5513,1.5516,1.5607,1.5616,1.5625,1.5649,1.5662,1.5666,1.5668,1.5743,1.5743,1.5743,0,0,0,0,0,0,1.5277,1.5289,1.5404,1.5358,1.5374,1.5435,1.546,1.5471,1.549,1.5551,1.5562,1.5521,1.5608,1.5619,1.5653,1.5654,1.5668,1.5671,1.5743,1.5743,1.5743,1.5697,0,0,0,0,0,0,1.5272,1.5288,1.5294,1.5358,1.5376,1.5431,1.546,1.5472,1.5497,1.5502,1.5562,1.5572,1.5609,1.5647,1.5657,1.5659,1.5674,1.5744,1.5743,1.5743,1.5699,1.5695,1.5692,0,0,0,0,0,1.5267,1.5275,1.5294,1.5307,1.5385,1.5431,1.5441,1.5485,1.5497,1.5504,1.5543,1.557,1.5652,1.565,1.5662,1.5665,1.5744,1.5743,1.5743,1.57,1.5696,1.5692,0,0,0,0,0,0,1.5208,1.5284,1.5306,1.5335,1.5376,1.5441,1.5451,1.5478,1.5516,1.5519,1.5571,1.5584,1.5613,1.5642,1.5639,1.5685,1.5701,1.5703,1.5665,1.5661,1.5658,1.565,1.5677,0,0,0,0,0,1.5199,1.523,1.5295,1.5314,1.5334,1.5389,1.541,1.5441,1.5485,1.5502,1.5544,1.5585,1.562,1.5642,1.5678,1.5704,1.5718,1.5711,1.5708,1.5705,1.5706,1.5725,1.5723,1.5741,1.5741,1.5741,0,0,1.5179,1.5225,1.5241,1.5304,1.5339,1.5371,1.5403,1.5434,1.5458,1.5506,1.5542,1.5574,1.5624,1.5654,1.567,1.5679,1.5705,1.5705,1.5702,1.5705,1.5724,1.5722,1.5721,1.5741,1.5741,1.5741,0,0,1.516,1.5197,1.5219,1.5255,1.5309,1.5346,1.5351,1.5413,1.5437,1.5474,1.5512,1.5541,1.56,1.5635,1.566,1.5658,1.5684,1.5668,1.565,1.5668,1.5666,1.5665,1.5666,1.5666,1.5668,1.5668,1.5668,0,1.5129,1.5178,1.5227,1.5257,1.5284,1.5332,1.5356,1.5387,1.5449,1.5467,1.5478,1.5556,1.5592,1.5633,1.5633,1.5651,1.5659,1.5661,1.5663,1.5662,1.5662,1.5664,1.5664,1.5666,1.5666,1.5667,1.5667,0,1.5138,1.5172,1.5183,1.5245,1.5273,1.5299,1.5353,1.5376,1.5405,1.5441,1.5479,1.5525,1.5572,1.5584,1.5611,1.563,1.5634,1.5653,1.567,1.5657,1.566,1.566,1.5663,1.5664,1.5664,1.5665,0,0,1.5083,1.5174,1.5177,1.5207,1.5272,1.5299,1.5328,1.5376,1.5396,1.5438,1.5464,1.5515,1.5534,1.5562,1.5595,1.561,1.5608,1.5627,1.5629,1.5623,1.5633,1.562,1.5619,1.5626,1.5627,1.5627,1.563,0,1.5075,1.5131,1.5177,1.5216,1.5249,1.5297,1.5323,1.5365,1.54,1.5433,1.5471,1.5507,1.5528,1.5547,1.5564,1.5604,1.5611,1.5605,1.5652,1.5653,1.5639,1.562,1.5605,1.5606,1.5631,1.5631,1.5631,0,1.5072,1.5115,1.5157,1.5222,1.5238,1.526,1.531,1.534,1.539,1.5415,1.5448,1.5483,1.5517,1.5531,1.5579,1.5574,1.5596,1.5619,1.562,1.5627,1.5641,1.5627,1.5607,1.5607,1.5633,1.5633,1.5632,0,1.503,1.5098,1.5133,1.5157,1.5232,1.5248,1.528,1.533,1.5357,1.54,1.5418,1.5464,1.5489,1.5523,1.5569,1.5575,1.5613,1.5631,1.5635,1.5634,1.5641,1.564,1.5625,1.5653,1.5653,1.5653,1.5653,0,1.5016,1.5041,1.5116,1.5138,1.5168,1.5221,1.5249,1.5284,1.533,1.536,1.5403,1.5429,1.5488,1.5523,1.5559,1.5594,1.5604,1.5626,1.5635,1.5622,1.562,1.5638,1.5639,1.5654,1.5654,1.5653,1.5653,0,1.4974,1.5025,1.5067,1.5137,1.5155,1.5174,1.5233,1.5256,1.5295,1.5332,1.5344,1.5404,1.5447,1.5496,1.5554,1.5579,1.5612,1.5625,1.5596,1.5601,1.5603,1.5603,1.56,1.5603,1.5628,1.5628,1.5627,0,1.4962,1.4983,1.5056,1.508,1.5111,1.5148,1.5177,1.5231,1.5259,1.532,1.5336,1.5382,1.5422,1.5489,1.5537,1.5583,1.5598,1.5594,1.5605,1.5592,1.56,1.5598,1.5602,1.5591,1.559,1.559,1.5589,0,1.4937,1.4962,1.5003,1.5053,1.5086,1.5128,1.5171,1.5188,1.525,1.528,1.5325,1.5357,1.5418,1.5464,1.5516,1.5549,1.558,1.5586,1.5589,1.5577,1.556,1.5571,1.5588,1.5585,1.5586,1.5586,1.5586,1.5586,1.4911,1.4933,1.4988,1.5032,1.5071,1.5111,1.5138,1.5181,1.522,1.5275,1.5305,1.535,1.5402,1.5475,1.5507,1.5544,1.5554,1.5559,1.556,1.5561,1.5558,1.5553,1.5553,1.5553,1.5554,1.5554,1.5554,0,1.4889,1.4928,1.4968,1.5029,1.5064,1.5092,1.5142,1.517,1.521,1.5256,1.5296,1.5349,1.5395,1.5448,1.5497,1.5516,1.5532,1.5527,1.5527,1.5534,1.5545,1.5538,1.5514,1.5514,1.5514,1.5514,1.5514,1.5514,1.4882,1.4922,1.4954,1.5013,1.5052,1.5098,1.5124,1.5162,1.52,1.5258,1.5297,1.5332,1.5382,1.5436,1.5479,1.5494,1.551,1.5502,1.552,1.553,1.5533,1.5536,1.553,1.5505,1.5505,1.5507,1.5507,1.5507]}]]